| time (UTC) | temp C | wind direction | speed KPH | gust KPH | rain 1hr cm | rain 24hr cm | rain mn cm | humidity % | barometer mb |
| 20260504024722 | 11 | 0 | 0.0 | 3.2 | 0.00 | 0.00 | 0.00 | 76 | 1003.7 |
| 20260504024457 | 11 | 0 | 0.0 | 1.6 | 0.00 | 0.00 | 0.00 | 75 | 1003.7 |
| 20260504023719 | 11 | 0 | 0.0 | 0.0 | 0.00 | 0.00 | 0.00 | 74 | 1003.7 |
| 20260504023454 | 11 | 0 | 0.0 | 1.6 | 0.00 | 0.00 | 0.00 | 74 | 1003.7 |
| 20260504022720 | 11 | 0 | 0.0 | 3.2 | 0.00 | 0.00 | 0.00 | 74 | 1003.7 |
| 20260504022220 | 12 | 0 | 0.0 | 3.2 | 0.00 | 0.00 | 0.00 | 74 | 1003.7 |
| 20260504021719 | 12 | 0 | 0.0 | 1.6 | 0.00 | 0.00 | 0.00 | 73 | 1003.7 |
| 20260504021220 | 12 | 0 | 0.0 | 1.6 | 0.00 | 0.00 | 0.00 | 72 | 1003.7 |
| 20260504020720 | 12 | 0 | 0.0 | 1.6 | 0.00 | 0.00 | 0.00 | 72 | 1003.7 |
| 20260504020220 | 12 | 0 | 0.0 | 1.6 | 0.00 | 0.00 | 0.00 | 71 | 1003.6 |
| 20260504015720 | 13 | 0 | 0.0 | 3.2 | 0.00 | 0.00 | 0.00 | 70 | 1003.6 |
| 20260504015220 | 13 | 0 | 0.0 | 3.2 | 0.00 | 0.00 | 0.00 | 68 | 1003.5 |
| 20260504014720 | 13 | 140 | 0.0 | 3.2 | 0.00 | 0.00 | 0.00 | 67 | 1003.6 |
| 20260504014220 | 13 | 0 | 0.0 | 3.2 | 0.00 | 0.00 | 0.00 | 67 | 1003.6 |
| 20260504013952 | 13 | 0 | 0.0 | 3.2 | 0.00 | 0.00 | 0.00 | 67 | 1003.6 |
| 20260504013218 | 14 | 0 | 0.0 | 1.6 | 0.00 | 0.00 | 0.00 | 67 | 1003.7 |
| 20260504012719 | 14 | 0 | 0.0 | 1.6 | 0.00 | 0.00 | 0.00 | 66 | 1003.6 |
| 20260504012219 | 15 | 0 | 0.0 | 1.6 | 0.00 | 0.00 | 0.00 | 65 | 1003.5 |
| 20260504011719 | 15 | 0 | 0.0 | 1.6 | 0.00 | 0.00 | 0.00 | 62 | 1003.5 |
| 20260504011450 | 15 | 0 | 0.0 | 1.6 | 0.00 | 0.00 | 0.00 | 59 | 1003.5 |
| 20260504010950 | 16 | 0 | 0.0 | 1.6 | 0.00 | 0.00 | 0.00 | 58 | 1003.5 |
| 20260504010450 | 16 | 0 | 0.0 | 1.6 | 0.00 | 0.00 | 0.00 | 57 | 1003.5 |
| 20260504005718 | 16 | 0 | 0.0 | 1.6 | 0.00 | 0.00 | 0.00 | 57 | 1003.5 |
| 20260504005449 | 16 | 0 | 0.0 | 1.6 | 0.00 | 0.00 | 0.00 | 58 | 1003.5 |
| 20260504004720 | 16 | 0 | 0.0 | 3.2 | 0.00 | 0.00 | 0.00 | 56 | 1003.4 |
| 20260504004218 | 17 | 0 | 0.0 | 3.2 | 0.00 | 0.00 | 0.00 | 55 | 1003.3 |
| 20260504003944 | 17 | 0 | 0.0 | 3.2 | 0.00 | 0.00 | 0.00 | 55 | 1003.4 |
| 20260504003214 | 17 | 0 | 0.0 | 3.2 | 0.00 | 0.00 | 0.00 | 53 | 1003.4 |
| 20260504002715 | 17 | 0 | 0.0 | 3.2 | 0.00 | 0.00 | 0.00 | 52 | 1003.4 |
| 20260504002215 | 18 | 308 | 1.6 | 8.0 | 0.00 | 0.00 | 0.00 | 52 | 1003.4 |
| 20260504002000 | 18 | 0 | 1.6 | 8.0 | 0.00 | 0.00 | 0.00 | 52 | 1003.3 |
| 20260504001442 | 18 | 204 | 3.2 | 8.0 | 0.00 | 0.00 | 0.00 | 51 | 1003.3 |
| 20260504000945 | 18 | 174 | 1.6 | 6.4 | 0.00 | 0.00 | 0.00 | 50 | 1003.3 |
| 20260504000213 | 18 | 112 | 1.6 | 6.4 | 0.00 | 0.00 | 0.00 | 52 | 1003.3 |
| 20260503235942 | 18 | 155 | 3.2 | 9.7 | 0.00 | 0.00 | 0.00 | 50 | 1003.3 |
| 20260503235439 | 18 | 274 | 1.6 | 9.7 | 0.00 | 0.00 | 0.00 | 49 | 1003.3 |
| 20260503234950 | 18 | 236 | 1.6 | 6.4 | 0.00 | 0.00 | 0.00 | 50 | 1003.3 |
| 20260503234440 | 18 | 0 | 1.6 | 6.4 | 0.00 | 0.00 | 0.00 | 49 | 1003.3 |
| 20260503233711 | 18 | 177 | 3.2 | 8.0 | 0.00 | 0.00 | 0.00 | 48 | 1003.4 |
| 20260503233211 | 18 | 0 | 3.2 | 9.7 | 0.00 | 0.00 | 0.00 | 49 | 1003.5 |
| 20260503232711 | 18 | 269 | 3.2 | 9.7 | 0.00 | 0.00 | 0.00 | 50 | 1003.5 |
| 20260503232211 | 18 | 311 | 3.2 | 9.7 | 0.00 | 0.00 | 0.00 | 51 | 1003.5 |
| 20260503231711 | 19 | 145 | 3.2 | 8.0 | 0.00 | 0.00 | 0.00 | 50 | 1003.5 |
| 20260503231210 | 19 | 248 | 3.2 | 8.0 | 0.00 | 0.00 | 0.00 | 50 | 1003.6 |
| 20260503230710 | 19 | 172 | 4.8 | 12.9 | 0.00 | 0.00 | 0.00 | 49 | 1003.6 |
| 20260503230206 | 19 | 174 | 4.8 | 12.9 | 0.00 | 0.00 | 0.00 | 49 | 1003.6 |
| 20260503225707 | 19 | 171 | 4.8 | 16.1 | 0.00 | 0.00 | 0.00 | 50 | 1003.6 |
| 20260503225205 | 19 | 353 | 4.8 | 16.1 | 0.00 | 0.00 | 0.00 | 48 | 1003.7 |
| 20260503224707 | 19 | 194 | 3.2 | 14.5 | 0.00 | 0.00 | 0.00 | 49 | 1003.7 |
| 20260503224207 | 19 | 350 | 3.2 | 11.3 | 0.00 | 0.00 | 0.00 | 49 | 1003.7 |
| 20260503223945 | 19 | 193 | 3.2 | 11.3 | 0.00 | 0.00 | 0.00 | 48 | 1003.7 |
| 20260503223207 | 19 | 180 | 3.2 | 11.3 | 0.00 | 0.00 | 0.00 | 49 | 1003.7 |
| 20260503222707 | 19 | 176 | 3.2 | 11.3 | 0.00 | 0.00 | 0.00 | 50 | 1003.8 |
| 20260503222436 | 19 | 157 | 4.8 | 11.3 | 0.00 | 0.00 | 0.00 | 50 | 1003.9 |
| 20260503221708 | 19 | 184 | 3.2 | 11.3 | 0.00 | 0.00 | 0.00 | 50 | 1003.9 |
| 20260503221207 | 19 | 191 | 3.2 | 11.3 | 0.00 | 0.00 | 0.00 | 48 | 1003.9 |
| 20260503220707 | 19 | 174 | 3.2 | 9.7 | 0.00 | 0.00 | 0.00 | 49 | 1003.9 |
| 20260503220203 | 19 | 347 | 3.2 | 9.7 | 0.00 | 0.00 | 0.00 | 50 | 1003.9 |
| 20260503215703 | 19 | 0 | 3.2 | 12.9 | 0.00 | 0.00 | 0.00 | 50 | 1003.9 |
| 20260503215200 | 18 | 196 | 4.8 | 12.9 | 0.00 | 0.00 | 0.00 | 51 | 1003.9 |
| 20260503214658 | 18 | 166 | 4.8 | 12.9 | 0.00 | 0.00 | 0.00 | 51 | 1003.9 |
| 20260503214158 | 18 | 343 | 4.8 | 12.9 | 0.00 | 0.00 | 0.00 | 50 | 1003.9 |
| 20260503213658 | 18 | 182 | 4.8 | 17.7 | 0.00 | 0.00 | 0.00 | 52 | 1004.1 |
| 20260503213158 | 18 | 264 | 6.4 | 17.7 | 0.00 | 0.00 | 0.00 | 51 | 1004.1 |
| 20260503212658 | 18 | 176 | 6.4 | 14.5 | 0.00 | 0.00 | 0.00 | 52 | 1004.2 |
| 20260503212158 | 18 | 192 | 4.8 | 14.5 | 0.00 | 0.00 | 0.00 | 50 | 1004.3 |
| 20260503211658 | 18 | 232 | 4.8 | 14.5 | 0.00 | 0.00 | 0.00 | 49 | 1004.2 |
| 20260503211155 | 18 | 185 | 4.8 | 14.5 | 0.00 | 0.00 | 0.00 | 52 | 1004.2 |
| 20260503210656 | 18 | 175 | 6.4 | 17.7 | 0.00 | 0.00 | 0.00 | 51 | 1004.4 |
| 20260503210153 | 18 | 168 | 8.0 | 17.7 | 0.00 | 0.00 | 0.00 | 52 | 1004.4 |
| 20260503205652 | 18 | 136 | 6.4 | 24.1 | 0.00 | 0.00 | 0.00 | 51 | 1004.5 |
| 20260503205153 | 18 | 228 | 6.4 | 24.1 | 0.00 | 0.00 | 0.00 | 52 | 1004.7 |
| 20260503204653 | 18 | 139 | 8.0 | 24.1 | 0.00 | 0.00 | 0.00 | 50 | 1004.6 |
| 20260503204152 | 18 | 152 | 6.4 | 20.9 | 0.00 | 0.00 | 0.00 | 50 | 1004.6 |
| 20260503203653 | 18 | 200 | 4.8 | 14.5 | 0.00 | 0.00 | 0.00 | 51 | 1004.7 |
| 20260503203424 | 18 | 177 | 4.8 | 16.1 | 0.00 | 0.00 | 0.00 | 54 | 1004.9 |
| 20260503202652 | 18 | 334 | 6.4 | 20.9 | 0.00 | 0.00 | 0.00 | 53 | 1005.0 |
| 20260503202153 | 17 | 193 | 6.4 | 20.9 | 0.00 | 0.00 | 0.00 | 55 | 1005.1 |
| 20260503201653 | 17 | 171 | 8.0 | 17.7 | 0.00 | 0.00 | 0.00 | 54 | 1005.2 |
| 20260503201154 | 17 | 274 | 9.7 | 19.3 | 0.00 | 0.00 | 0.00 | 55 | 1005.3 |
| 20260503200923 | 17 | 183 | 6.4 | 19.3 | 0.00 | 0.00 | 0.00 | 56 | 1005.5 |
| 20260503200416 | 16 | 216 | 6.4 | 17.7 | 0.00 | 0.00 | 0.00 | 57 | 1005.6 |
| 20260503195644 | 16 | 172 | 8.0 | 25.7 | 0.00 | 0.00 | 0.00 | 59 | 1005.7 |
| 20260503195416 | 16 | 81 | 9.7 | 25.7 | 0.00 | 0.00 | 0.00 | 58 | 1005.7 |
| 20260503194924 | 16 | 162 | 8.0 | 22.5 | 0.00 | 0.00 | 0.00 | 57 | 1005.8 |
| 20260503194418 | 17 | 188 | 8.0 | 24.1 | 0.00 | 0.00 | 0.00 | 58 | 1005.9 |
| 20260503193917 | 17 | 173 | 8.0 | 24.1 | 0.00 | 0.00 | 0.00 | 57 | 1006.1 |
| 20260503193415 | 17 | 168 | 6.4 | 24.1 | 0.00 | 0.00 | 0.00 | 58 | 1006.2 |
| 20260503192642 | 17 | 197 | 6.4 | 17.7 | 0.00 | 0.00 | 0.00 | 56 | 1006.1 |
| 20260503192142 | 17 | 164 | 8.0 | 20.9 | 0.00 | 0.00 | 0.00 | 53 | 1006.2 |
| 20260503191643 | 17 | 182 | 8.0 | 20.9 | 0.00 | 0.00 | 0.00 | 54 | 1006.1 |
| 20260503191415 | 17 | 96 | 8.0 | 20.9 | 0.00 | 0.00 | 0.00 | 55 | 1006.1 |
| 20260503190639 | 17 | 171 | 6.4 | 20.9 | 0.00 | 0.00 | 0.00 | 52 | 1006.2 |
| 20260503190139 | 17 | 181 | 9.7 | 20.9 | 0.00 | 0.00 | 0.00 | 54 | 1006.2 |
| 20260503185639 | 17 | 151 | 9.7 | 20.9 | 0.00 | 0.00 | 0.00 | 54 | 1006.2 |
| 20260503185141 | 17 | 252 | 8.0 | 20.9 | 0.00 | 0.00 | 0.00 | 52 | 1006.2 |
| 20260503184637 | 17 | 186 | 6.4 | 20.9 | 0.00 | 0.00 | 0.00 | 50 | 1006.2 |
| 20260503184137 | 17 | 161 | 8.0 | 17.7 | 0.00 | 0.00 | 0.00 | 52 | 1006.3 |
| 20260503183637 | 17 | 199 | 8.0 | 20.9 | 0.00 | 0.00 | 0.00 | 51 | 1006.1 |
| 20260503183137 | 17 | 165 | 9.7 | 22.5 | 0.00 | 0.00 | 0.00 | 53 | 1006.3 |
| 20260503182638 | 17 | 160 | 12.9 | 24.1 | 0.00 | 0.00 | 0.00 | 51 | 1006.3 |
| 20260503182138 | 17 | 107 | 9.7 | 24.1 | 0.00 | 0.00 | 0.00 | 50 | 1006.4 |
| 20260503181637 | 17 | 169 | 9.7 | 22.5 | 0.00 | 0.00 | 0.00 | 53 | 1006.4 |
| 20260503181137 | 16 | 177 | 9.7 | 22.5 | 0.00 | 0.00 | 0.00 | 54 | 1006.6 |
| 20260503180634 | 16 | 155 | 8.0 | 22.5 | 0.00 | 0.00 | 0.00 | 56 | 1006.6 |
| 20260503180136 | 16 | 167 | 8.0 | 17.7 | 0.00 | 0.00 | 0.00 | 56 | 1006.6 |
| 20260503175634 | 16 | 190 | 9.7 | 30.6 | 0.00 | 0.00 | 0.00 | 56 | 1006.8 |
| 20260503175136 | 15 | 196 | 9.7 | 30.6 | 0.00 | 0.00 | 0.00 | 57 | 1006.8 |
| 20260503174636 | 15 | 173 | 12.9 | 33.8 | 0.00 | 0.00 | 0.00 | 61 | 1006.9 |
| 20260503174136 | 15 | 196 | 12.9 | 33.8 | 0.00 | 0.00 | 0.00 | 62 | 1007.0 |
| 20260503173636 | 15 | 149 | 14.5 | 27.4 | 0.00 | 0.00 | 0.00 | 60 | 1007.1 |
| 20260503173136 | 14 | 191 | 12.9 | 22.5 | 0.00 | 0.00 | 0.00 | 62 | 1007.3 |
| 20260503172637 | 14 | 164 | 11.3 | 22.5 | 0.00 | 0.00 | 0.00 | 62 | 1007.2 |
| 20260503172137 | 14 | 193 | 9.7 | 22.5 | 0.00 | 0.00 | 0.00 | 62 | 1007.3 |
| 20260503171635 | 13 | 173 | 9.7 | 20.9 | 0.00 | 0.00 | 0.00 | 64 | 1007.4 |
| 20260503171135 | 13 | 192 | 12.9 | 22.5 | 0.00 | 0.00 | 0.00 | 63 | 1007.6 |
| 20260503170632 | 13 | 177 | 12.9 | 22.5 | 0.00 | 0.00 | 0.00 | 63 | 1007.8 |
| 20260503170133 | 13 | 185 | 11.3 | 20.9 | 0.00 | 0.00 | 0.00 | 64 | 1007.7 |
| 20260503160130 | 11 | 177 | 9.7 | 20.9 | 0.00 | 0.00 | 0.00 | 72 | 1008.5 |
| 20260503150911 | 12 | 162 | 8.0 | 25.7 | 0.00 | 0.00 | 0.00 | 67 | 1009.2 |
| 20260503150358 | 12 | 198 | 8.0 | 25.7 | 0.00 | 0.00 | 0.00 | 66 | 1009.3 |
| 20260503140123 | 13 | 175 | 4.8 | 14.5 | 0.00 | 0.00 | 0.00 | 60 | 1009.6 |
| 20260503131121 | 11 | 185 | 4.8 | 14.5 | 0.00 | 0.00 | 0.00 | 63 | 1010.0 |
| 20260503130848 | 11 | 182 | 4.8 | 9.7 | 0.00 | 0.00 | 0.00 | 62 | 1010.2 |
| 20260503130120 | 11 | 167 | 3.2 | 14.5 | 0.00 | 0.00 | 0.00 | 62 | 1010.2 |
| 20260503120115 | 9 | 148 | 4.8 | 12.9 | 0.00 | 0.00 | 0.00 | 62 | 1010.1 |
| 20260503110613 | 8 | 163 | 3.2 | 14.5 | 0.00 | 0.00 | 0.00 | 62 | 1009.9 |
| 20260503110113 | 8 | 170 | 3.2 | 9.7 | 0.00 | 0.00 | 0.00 | 63 | 1009.9 |
| 20260503100108 | 8 | 137 | 3.2 | 8.0 | 0.00 | 0.00 | 0.00 | 63 | 1010.2 |
| 20260503090104 | 8 | 189 | 3.2 | 11.3 | 0.00 | 0.00 | 0.00 | 62 | 1010.6 |
| 20260503081541 | 8 | 161 | 3.2 | 11.3 | 0.00 | 0.00 | 0.00 | 62 | 1011.0 |
| 20260503081040 | 8 | 153 | 3.2 | 11.3 | 0.00 | 0.00 | 0.00 | 61 | 1011.0 |
| 20260503080537 | 8 | 185 | 3.2 | 11.3 | 0.00 | 0.00 | 0.00 | 62 | 1011.0 |
| 20260503072537 | 8 | 217 | 1.6 | 14.5 | 0.00 | 0.00 | 0.00 | 61 | 1011.2 |
| 20260503072037 | 8 | 147 | 1.6 | 6.4 | 0.00 | 0.00 | 0.00 | 62 | 1011.2 |
| 20260503071538 | 8 | 0 | 1.6 | 9.7 | 0.00 | 0.00 | 0.00 | 62 | 1011.2 |
| 20260503071037 | 8 | 159 | 1.6 | 9.7 | 0.00 | 0.00 | 0.00 | 61 | 1011.2 |
| 20260503070532 | 8 | 159 | 1.6 | 8.0 | 0.00 | 0.00 | 0.00 | 61 | 1011.3 |
| 20260503055027 | 7 | 144 | 0.0 | 4.8 | 0.00 | 0.00 | 0.00 | 64 | 1011.8 |
| 20260503054528 | 7 | 0 | 0.0 | 4.8 | 0.00 | 0.00 | 0.00 | 65 | 1011.9 |
| 20260503054028 | 7 | 197 | 0.0 | 4.8 | 0.00 | 0.00 | 0.00 | 65 | 1011.9 |
| 20260503053759 | 7 | 156 | 1.6 | 4.8 | 0.00 | 0.00 | 0.00 | 65 | 1011.9 |
| 20260503053028 | 7 | 0 | 0.0 | 4.8 | 0.00 | 0.00 | 0.00 | 65 | 1011.9 |
| 20260503052529 | 7 | 178 | 0.0 | 3.2 | 0.00 | 0.00 | 0.00 | 65 | 1012.0 |
| 20260503052028 | 7 | 185 | 0.0 | 4.8 | 0.00 | 0.00 | 0.00 | 66 | 1012.0 |
| 20260503051529 | 7 | 0 | 1.6 | 6.4 | 0.00 | 0.00 | 0.00 | 65 | 1012.0 |
| 20260503051027 | 7 | 0 | 1.6 | 8.0 | 0.00 | 0.00 | 0.00 | 64 | 1012.0 |
| 20260503050528 | 7 | 0 | 1.6 | 9.7 | 0.00 | 0.00 | 0.00 | 65 | 1012.1 |
| 20260503050027 | 7 | 122 | 0.0 | 9.7 | 0.00 | 0.00 | 0.00 | 64 | 1012.1 |
| 20260503045528 | 7 | 0 | 1.6 | 8.0 | 0.00 | 0.00 | 0.00 | 64 | 1012.1 |
| 20260503045026 | 7 | 214 | 1.6 | 8.0 | 0.00 | 0.00 | 0.00 | 65 | 1012.1 |
| 20260503044526 | 7 | 0 | 1.6 | 8.0 | 0.00 | 0.00 | 0.00 | 65 | 1012.2 |
| 20260503044024 | 7 | 0 | 1.6 | 8.0 | 0.00 | 0.00 | 0.00 | 65 | 1012.2 |
| 20260503043524 | 7 | 149 | 1.6 | 4.8 | 0.00 | 0.00 | 0.00 | 65 | 1012.2 |
| 20260503043025 | 7 | 0 | 1.6 | 4.8 | 0.00 | 0.00 | 0.00 | 66 | 1012.2 |
| 20260503042525 | 7 | 0 | 0.0 | 4.8 | 0.00 | 0.00 | 0.00 | 66 | 1012.3 |
| 20260503042232 | 7 | 0 | 0.0 | 3.2 | 0.00 | 0.00 | 0.00 | 67 | 1012.3 |
| 20260503041501 | 7 | 0 | 0.0 | 3.2 | 0.00 | 0.00 | 0.00 | 67 | 1012.3 |
| 20260503041001 | 7 | 0 | 0.0 | 1.6 | 0.00 | 0.00 | 0.00 | 67 | 1012.3 |
| 20260503040501 | 7 | 187 | 0.0 | 3.2 | 0.00 | 0.00 | 0.00 | 67 | 1012.4 |
| 20260503040001 | 7 | 0 | 0.0 | 3.2 | 0.00 | 0.00 | 0.00 | 67 | 1012.4 |
| 20260503035501 | 7 | 158 | 0.0 | 6.4 | 0.00 | 0.00 | 0.00 | 67 | 1012.4 |
| 20260503035003 | 7 | 328 | 0.0 | 6.4 | 0.00 | 0.00 | 0.00 | 66 | 1012.5 |
| 20260503034502 | 7 | 0 | 0.0 | 4.8 | 0.00 | 0.00 | 0.00 | 67 | 1012.5 |
| 20260503034229 | 7 | 0 | 0.0 | 4.8 | 0.00 | 0.00 | 0.00 | 67 | 1012.5 |
| 20260503033730 | 7 | 0 | 0.0 | 3.2 | 0.00 | 0.00 | 0.00 | 67 | 1012.5 |
| 20260503033228 | 7 | 140 | 0.0 | 6.4 | 0.00 | 0.00 | 0.00 | 66 | 1012.6 |
| 20260503032458 | 7 | 201 | 0.0 | 6.4 | 0.00 | 0.00 | 0.00 | 65 | 1012.6 |
| 20260503031959 | 7 | 0 | 1.6 | 4.8 | 0.00 | 0.00 | 0.00 | 64 | 1012.6 |
| 20260503031735 | 7 | 0 | 1.6 | 8.0 | 0.00 | 0.00 | 0.00 | 63 | 1012.6 |
| 20260503031001 | 7 | 0 | 1.6 | 8.0 | 0.00 | 0.00 | 0.00 | 63 | 1012.7 |
| 20260503030457 | 7 | 135 | 0.0 | 6.4 | 0.00 | 0.00 | 0.00 | 64 | 1012.7 |
| 20260503025958 | 7 | 143 | 0.0 | 3.2 | 0.00 | 0.00 | 0.00 | 65 | 1012.8 |
| 20260503025729 | 7 | 132 | 0.0 | 6.4 | 0.00 | 0.00 | 0.00 | 64 | 1012.8 |
| 20260503025226 | 7 | 0 | 0.0 | 6.4 | 0.00 | 0.00 | 0.00 | 63 | 1012.8 |